This is the latest recevied weather packets stored in our database for station/object DB2AG-13. If no packets are shown the sender has not sent any weather packets the latest 10 day(s).
| Time | Temp. | Humidity | Pressure | Rain* | Wind** | Luminosity | Snow |
|---|---|---|---|---|---|---|---|
| 1787504958 | 18.33° C | 42% | 1023.8 hPa | - | - | - | - |
| 1787504418 | 18.89° C | 42% | 1023.8 hPa | - | - | - | - |
| 1787503880 | 18.33° C | 42% | 1023.8 hPa | - | - | - | - |
| 1787503340 | 18.89° C | 41% | 1023.8 hPa | - | - | - | - |
| 1787502800 | 19.44° C | 39% | 1023.8 hPa | - | - | - | - |
| 1787502258 | 20.56° C | 38% | 1023.9 hPa | - | - | - | - |
| 1787501192 | 20° C | 39% | 1023.8 hPa | - | - | - | - |
| 1787500653 | 19.44° C | 38% | 1023.8 hPa | - | - | - | - |
| 1787500122 | 20° C | 38% | 1023.8 hPa | - | - | - | - |
| 1787499583 | 20.56° C | 38% | 1023.8 hPa | - | - | - | - |
| 1787499047 | 20.56° C | 38% | 1023.8 hPa | - | - | - | - |
| 1787498507 | 20.56° C | 36% | 1023.8 hPa | - | - | - | - |
| 1787497966 | 21.67° C | 34% | 1023.8 hPa | - | - | - | - |
| 1787497419 | 22.22° C | 35% | 1023.9 hPa | - | - | - | - |
| 1787496876 | 21.67° C | 35% | 1023.9 hPa | - | - | - | - |
| 1787496336 | 22.22° C | 36% | 1023.8 hPa | - | - | - | - |
| 1787495251 | 22.22° C | 39% | 1024 hPa | - | - | - | - |
| 1787494169 | 21.11° C | 38% | 1023.9 hPa | - | - | - | - |
| 1787493639 | 21.67° C | 39% | 1024.1 hPa | - | - | - | - |
| 1787493104 | 21.11° C | 39% | 1023.9 hPa | - | - | - | - |
| 1787492578 | 20.56° C | 40% | 1024 hPa | - | - | - | - |
| 1787492038 | 20.56° C | 39% | 1024 hPa | - | - | - | - |
| 1787491499 | 20.56° C | 40% | 1024 hPa | - | - | - | - |
| 1787490955 | 21.11° C | 40% | 1024.1 hPa | - | - | - | - |
| 1787490414 | 21.11° C | 39% | 1024.1 hPa | - | - | - | - |
* Rain since midnight (hover to see other rain measurements)
** Current wind speed in m/s (hover to see current wind gust speed)